Regional Weather Roundup
Issued by NWS

Home | Current Version | Previous Version | Text Only | Print | Product List | Glossary Off
Versions: 1 2 3 4 5 6 7 8 9 10 11 12 13 14 15 16 17 18 19 20 21 22 23 24 25 26 27 28 29 30 31 32 33 34 35 36 37 38 39 40 41 42 43 44 45 46 47 48 49 50

000
ASUS45 KBOU 291007
RWRCO

WEATHER ROUNDUP FOR COLORADO
NATIONAL WEATHER SERVICE DENVER/BOULDER CO
400 AM MDT MON JUN 29 2015

NOTE: "FAIR" INDICATES FEW OR NO CLOUDS BELOW 12000 FEET WITH NO
SIGNIFICANT WEATHER AND/OR OBSTRUCTIONS TO VISIBILITY.

COZ001>005-013-030-031-291100-
...NORTHWEST COLORADO...

CITY           SKY/WX    TMP DP  RH WIND       PRES   REMARKS
CRAIG          MOCLDY    65  46  50 NE6       30.25S
HAYDEN         PTCLDY    63  43  48 E9        30.27S
MEEKER         PTCLDY    59  45  59 NE5       30.26S
MOUNT WERNER   NOT AVBL
STEAMBOAT SPGS PTCLDY    55  46  72 CALM      30.31R
WALDEN         CLEAR     50  45  81 E5        30.40S
$$

COZ006>008-011-291100-
...WEST CENTRAL VALLEYS...

CITY           SKY/WX    TMP DP  RH WIND       PRES   REMARKS
GRAND JUNCTION PTCLDY    77  44  30 E17       30.11S
MONTROSE       MOCLDY    70  45  40 W5        30.23S
EAGLE          NOT AVBL
RIFLE          PTCLDY    68  45  43 SE5       30.19S
DELTA          MOCLDY    74  42  31 NE6       30.19S
NUCLA          MOCLDY    64  45  48 SE6       30.28S
$$

COZ017>023-064>068-291100-
...SOUTHWEST COLORADO...

CITY           SKY/WX    TMP DP  RH WIND       PRES   REMARKS
DURANGO        PTCLDY    57  46  66 SE3       30.32F
CORTEZ         CLEAR     63  44  50 N3        30.26S
PAGOSA SPRINGS MOCLDY    58  44  59 CALM      30.41S
TELLURIDE      CLOUDY    60  41  50 SE6       30.51S
WOLF CREEK PAS NOT AVBL
$$

COZ009-010-012-014-032>034-037-058>063-291100-
...CENTRAL COLORADO...

CITY           SKY/WX    TMP DP  RH WIND       PRES   REMARKS
ASPEN          PTCLDY    57  44  62 S6        30.37S
BUENA VISTA    PTCLDY    52  49  89 CALM      30.43F
COPPER MTN     CLOUDY    55  32  41 S3        30.69F
BERTHOUD PASS  FAIR      45  36  70 W10       30.74S
COTTONWOOD PAS NOT AVBL
GUNNISON       MOCLDY    55  46  71 NE7       30.46S
KREMMLING      PTCLDY    52  45  76 CALM      30.38F
LEADVILLE      PTCLDY    40  40 100 N5        30.54F
MONARCH PASS   PTCLDY    45  37  76 SW14      30.79F
SALIDA         PTCLDY    59  51  75 N6        30.46F
SUNLIGHT       PTCLDY    59  37  44 CALM      30.62F
WILKERSON PASS MOCLDY    50  36  57 W6        30.66R
$$

COZ069>075-291100-
...SAN LUIS VALLEY/SANGRE DE CRISTO MOUNTAINS...

CITY           SKY/WX    TMP DP  RH WIND       PRES   REMARKS
ALAMOSA        PTCLDY    52  47  83 NW5       30.40S
LA VETA PASS   PTCLDY    46  37  71 MISG      30.52F
SAGUACHE       PTCLDY    52  46  82 N3        30.44F
$$

COZ035-036-038>040-291100-
...NORTHERN COLORADO FRONT RANGE...

CITY           SKY/WX    TMP DP  RH WIND       PRES   REMARKS
DENVER INTL AP MOCLDY    61  53  75 SW9       30.17F
DMNS CITY PARK   N/A     66  52  60 SW2G9     30.18R
AURORA         MOCLDY    64  51  61 S5        30.20S
FRONT RANGE AP MOCLDY    64  54  68 MISG      30.18F
ERIE MUNI ARPT MOCLDY    62  54  73 CALM      30.16S
BOULDER MUN AP MOCLDY    63  54  72 W5        30.18R
CENTENNIAL     MOCLDY    63  51  65 E8        30.21S
BROOMFIELD     MOCLDY    68  48  49 CALM      30.20S
FORT COLLINS   MOCLDY    66  57  72 NE5       30.18R
LONGMONT       MOCLDY    66  55  68 CALM      30.17F
$$

COZ041-046-047-076>085-087-088-291100-
...PIKES PEAK/PALMER DIVIDE AND SOUTHERN FOOTHILLS...

CITY           SKY/WX    TMP DP  RH WIND       PRES   REMARKS
COLO. SPRINGS  MOCLDY    58  54  86 N9        30.25F
A. F. ACADEMY  MOCLDY    55  53  94 N5        30.27F
ELLICOTT       MOCLDY   N/A N/A N/A NE3       30.23F
FALCON         MOCLDY    56  51  82 NW8       30.30F
FORT CARSON    CLOUDY    58  55  90 N9        30.22F
LIMON          MOCLDY    56  54  93 N6        30.18F
MONUMENT HILL  MOCLDY    57  48  72 MISG        N/A
TRINIDAD       PTCLDY    58  51  78 S7        30.23F
$$

COZ042>045-048>051-090-091-291100-
...NORTHEAST COLORADO...

CITY           SKY/WX    TMP DP  RH WIND       PRES   REMARKS
GREELEY ARPT   CLOUDY    64  57  77 NE3       30.15S
AKRON          MOCLDY    67  52  58 SW10      30.13F
BURLINGTON     CLEAR     60  53  77 W5        30.12F
WRAY           PTCLDY    64  56  75 W5        30.10S
STERLING       MOCLDY    64  57  77 NE9G20    30.15R
HOLYOKE        PTCLDY    64  55  72 N17       30.14R
FORT MORGAN    MOCLDY    61  10  13 N9        30.15R
$$

COZ086-089-092>099-291100-
...SOUTHEAST COLORADO...

CITY           SKY/WX    TMP DP  RH WIND       PRES   REMARKS
PUEBLO         PTCLDY    60  56  86 W6        30.14F
LA JUNTA       MOCLDY    62  57  83 NW8       30.13F
LAMAR          PTCLDY    60  58  92 SW7       30.09F
SPRINGFIELD      N/A     61  55  81 NE8       30.14F
$$


USA.gov is the U.S. government's official web portal to all federal, state and local government web resources and services.